FW5295 Weather Reports


Display with metric or nautical units.
time (UTC)temp
F
wind
direction
speed
MPH
gust
MPH
rain 1hr
in
rain 24hr
in
rain mn
in
humidity
%
barometer
mb
20260507120350 35 124 0.0 1.0 0.00 0.00 0.00 83 1014.3
20260507115852 35 154 0.0 1.0 0.00 0.00 0.00 84 1014.3
20260507115130 35 124 0.0 1.0 0.00 0.00 0.00 85 1014.3
20260507114631 34 48 0.0 1.0 0.00 0.00 0.00 86 1014.3
20260507114128 34 60 0.0 1.0 0.00 0.00 0.00 87 1014.3
20260507113628 33 106 1.0 2.0 0.00 0.00 0.00 87 1014.3
20260507113143 33 56 1.0 2.0 0.00 0.00 0.00 87 1014.3
20260507112629 32 68 1.0 1.0 0.00 0.00 0.00 86 1014.3
20260507112127 32 212 0.0 0.0 0.00 0.00 0.00 86 1014.3
20260507111849 32 110 0.0 0.0 0.00 0.00 0.00 86 1014.0
20260507111346 32 119 0.0 1.0 0.00 0.00 0.00 85 1014.3
20260507110850 32 148 1.0 1.0 0.00 0.00 0.00 85 1014.0
20260507110602 32 32 0.0 1.0 0.00 0.00 0.00 84 1014.3
20260507105846 32 11 0.0 1.0 0.00 0.00 0.00 85 1014.3
20260507105123 32 34 0.0 1.0 0.00 0.00 0.00 85 1014.0
20260507104624 32 52 0.0 1.0 0.00 0.00 0.00 84 1014.3
20260507104122 32 44 0.0 1.0 0.00 0.00 0.00 84 1014.3
20260507103622 32 345 0.0 1.0 0.00 0.00 0.00 84 1014.3
20260507103123 32 55 0.0 1.0 0.00 0.00 0.00 84 1014.3
20260507102622 32 55 0.0 1.0 0.00 0.00 0.00 84 1014.3
20260507102342 32 38 0.0 1.0 0.00 0.00 0.00 84 1014.3
20260507101852 32 57 0.0 0.0 0.00 0.00 0.00 84 1014.0
20260507101120 32 55 0.0 0.0 0.00 0.00 0.00 85 1014.3
20260507100620 32 69 0.0 0.0 0.00 0.00 0.00 85 1014.3
20260507100117 32 32 0.0 0.0 0.00 0.00 0.00 85 1014.3
20260507095850 32 103 0.0 1.0 0.00 0.00 0.00 85 1014.3
20260507095118 32 53 0.0 1.0 0.00 0.00 0.00 85 1014.3
20260507094616 32 66 0.0 2.0 0.00 0.00 0.00 85 1014.3
20260507094118 32 32 0.0 2.0 0.00 0.00 0.00 84 1014.3
20260507093624 32 25 0.0 2.0 0.00 0.00 0.00 84 1014.3
20260507093114 32 34 0.0 0.0 0.00 0.00 0.00 84 1014.3
20260507092615 32 130 0.0 0.0 0.00 0.00 0.00 84 1014.3
20260507092113 32 69 0.0 1.0 0.00 0.00 0.00 84 1014.3
20260507091615 32 72 0.0 1.0 0.00 0.00 0.00 83 1014.3
20260507091125 32 63 0.0 1.0 0.00 0.00 0.00 83 1014.3
20260507090613 32 44 0.0 1.0 0.00 0.00 0.00 82 1014.3
20260507090338 32 19 0.0 0.0 0.00 0.00 0.00 82 1014.3
20260507085611 33 126 0.0 1.0 0.00 0.00 0.00 82 1014.3
20260507085110 33 103 0.0 1.0 0.00 0.00 0.00 82 1014.3
20260507084611 33 113 0.0 1.0 0.00 0.00 0.00 83 1014.3
20260507084344 33 94 0.0 1.0 0.00 0.00 0.00 82 1014.3
20260507083830 33 32 0.0 1.0 0.00 0.00 0.00 81 1014.3
20260507083108 33 22 0.0 1.0 0.00 0.00 0.00 81 1014.3
20260507082613 33 69 0.0 1.0 0.00 0.00 0.00 81 1014.3
20260507082340 33 38 0.0 1.0 0.00 0.00 0.00 80 1014.3
20260507081831 33 89 0.0 1.0 0.00 0.00 0.00 80 1014.3
20260507081107 33 145 0.0 1.0 0.00 0.00 0.00 79 1014.3
20260507080622 34 53 0.0 1.0 0.00 0.00 0.00 79 1014.3
20260507080331 34 54 0.0 1.0 0.00 0.00 0.00 79 1014.3
20260507075607 34 124 0.0 1.0 0.00 0.00 0.00 78 1014.3
20260507075104 34 48 0.0 1.0 0.00 0.00 0.00 78 1014.3
20260507074604 34 77 0.0 1.0 0.00 0.00 0.00 78 1014.7
20260507074104 34 113 0.0 0.0 0.00 0.00 0.00 77 1014.3
20260507073607 34 73 0.0 0.0 0.00 0.00 0.00 77 1014.3
20260507073102 35 49 0.0 1.0 0.00 0.00 0.00 77 1014.7
20260507072606 35 51 0.0 1.0 0.00 0.00 0.00 77 1014.3
20260507072544 35 55 0.0 1.0 0.00 0.00 0.00 77 1014.7
20260507072055 35 66 0.0 1.0 0.00 0.00 0.00 76 1014.7
20260507071101 35 107 0.0 2.0 0.00 0.00 0.00 76 1014.7
20260507070603 35 39 1.0 2.0 0.00 0.00 0.00 76 1014.7
20260507070325 35 49 0.0 1.0 0.00 0.00 0.00 75 1014.7
20260507065559 35 66 0.0 1.0 0.00 0.00 0.00 76 1014.7
20260507065058 35 77 0.0 1.0 0.00 0.00 0.00 77 1015.0
20260507064833 35 66 0.0 1.0 0.00 0.00 0.00 77 1015.0
20260507064108 35 44 0.0 1.0 0.00 0.00 0.00 76 1015.0
20260507064057 35 49 0.0 1.0 0.00 0.00 0.00 76 1015.0
20260507063055 35 63 0.0 2.0 0.00 0.00 0.00 77 1014.7
20260507062556 36 124 0.0 2.0 0.00 0.00 0.00 78 1014.7
20260507062317 36 51 0.0 2.0 0.00 0.00 0.00 77 1015.0
20260507061558 36 35 1.0 2.0 0.00 0.00 0.00 76 1015.0
20260507061057 36 66 0.0 1.0 0.00 0.00 0.00 76 1015.0
20260507060556 36 43 0.0 2.0 0.00 0.00 0.00 76 1015.0
20260507060108 36 44 0.0 2.0 0.00 0.00 0.00 76 1015.0
20260507055554 36 52 1.0 1.0 0.00 0.00 0.00 76 1015.0
20260507055104 36 69 0.0 1.0 0.00 0.00 0.00 76 1015.4
20260507055035 36 102 0.0 1.0 0.00 0.00 0.00 75 1015.0
20260507054051 36 69 0.0 0.0 0.00 0.00 0.00 75 1015.0
20260507053551 36 55 0.0 1.0 0.00 0.00 0.00 76 1014.7
20260507053049 36 44 0.0 1.0 0.00 0.00 0.00 77 1015.0
20260507052549 36 104 0.0 1.0 0.00 0.00 0.00 77 1015.0
20260507052049 36 65 0.0 0.0 0.00 0.00 0.00 77 1015.0
20260507051549 36 103 0.0 2.0 0.00 0.00 0.00 77 1015.0
20260507051047 36 113 0.0 2.0 0.00 0.00 0.00 76 1015.0
20260507050549 36 60 0.0 2.0 0.00 0.00 0.00 76 1015.0
20260507045550 36 51 0.0 1.0 0.00 0.00 0.00 77 1015.0
20260507045047 36 53 0.0 1.0 0.00 0.00 0.00 79 1015.0
20260507044546 36 58 0.0 2.0 0.00 0.00 0.00 79 1014.7
20260507044044 36 63 0.0 2.0 0.00 0.00 0.00 77 1015.0
20260507043549 37 64 1.0 1.0 0.00 0.00 0.00 78 1015.0
20260507043045 37 68 0.0 1.0 0.00 0.00 0.00 79 1014.7
20260507042544 37 113 0.0 1.0 0.00 0.00 0.00 76 1015.0
20260507042042 37 101 0.0 1.0 0.00 0.00 0.00 76 1015.0
20260507041543 37 65 0.0 2.0 0.00 0.00 0.00 76 1015.0
20260507041041 37 89 0.0 2.0 0.00 0.00 0.00 75 1015.0
20260507040542 37 44 0.0 2.0 0.00 0.00 0.00 75 1015.0
20260507040054 38 69 0.0 1.0 0.00 0.00 0.00 73 1015.0
20260507035802 38 48 0.0 2.0 0.00 0.00 0.00 72 1015.0
20260507035040 38 54 1.0 2.0 0.00 0.00 0.00 72 1015.0
20260507034542 38 88 2.0 2.0 0.00 0.00 0.00 71 1014.7
20260507034039 38 45 1.0 2.0 0.00 0.00 0.00 68 1015.0
20260507033539 39 77 0.0 2.0 0.00 0.00 0.00 67 1015.0
20260507033037 39 85 1.0 2.0 0.00 0.00 0.00 67 1015.0
20260507032542 39 154 0.0 2.0 0.00 0.00 0.00 65 1015.0
20260507032037 40 89 2.0 2.0 0.00 0.00 0.00 65 1015.0
20260507031541 40 76 1.0 2.0 0.00 0.00 0.00 65 1015.0
20260507031036 40 33 1.0 2.0 0.00 0.00 0.00 64 1015.0
20260507030535 41 67 0.0 2.0 0.00 0.00 0.00 65 1015.0
20260507030035 41 62 0.0 2.0 0.00 0.00 0.00 65 1015.0
20260507025534 41 95 1.0 2.0 0.00 0.00 0.00 63 1015.0
20260507025033 41 149 0.0 2.0 0.00 0.00 0.00 59 1015.0
20260507024534 42 57 0.0 2.0 0.00 0.00 0.00 59 1014.7
20260507024032 42 50 1.0 2.0 0.00 0.00 0.00 58 1014.7
20260507023534 42 55 1.0 2.0 0.00 0.00 0.00 59 1014.7
20260507023033 42 46 1.0 3.0 0.00 0.00 0.00 57 1015.0
20260507022533 42 45 1.0 3.0 0.00 0.00 0.00 58 1014.3
20260507022044 43 13 2.0 3.0 0.00 0.00 0.00 56 1014.7
20260507021530 43 0 1.0 2.0 0.00 0.00 0.00 57 1014.7
20260507021310 43 53 0.0 3.0 0.00 0.00 0.00 56 1014.7
20260507020529 43 54 1.0 3.0 0.00 0.00 0.00 56 1014.3
20260507020030 43 36 2.0 2.0 0.00 0.00 0.00 56 1014.3
20260507015529 43 25 2.0 2.0 0.00 0.00 0.00 57 1014.7
20260507015040 44 333 1.0 2.0 0.00 0.00 0.00 56 1014.3
20260507014529 44 62 1.0 2.0 0.00 0.00 0.00 55 1014.3
20260507014026 44 31 0.0 2.0 0.00 0.00 0.00 54 1014.3
20260507013803 44 89 0.0 2.0 0.00 0.00 0.00 55 1014.3
20260507013028 45 315 0.0 2.0 0.00 0.00 0.00 52 1014.0
20260507012525 45 19 1.0 2.0 0.00 0.00 0.00 52 1014.3
20260507012023 46 22 0.0 2.0 0.00 0.00 0.00 50 1014.3
20260507011525 46 98 1.0 4.0 0.00 0.00 0.00 49 1014.0
20260507011247 46 23 0.0 4.0 0.00 0.00 0.00 48 1014.0
20260507011136 46 342 1.0 3.0 0.00 0.00 0.00 49 1014.3
20260507010025 47 69 0.0 3.0 0.00 0.00 0.00 48 1014.0
20260507005523 47 2 2.0 5.0 0.00 0.00 0.00 47 1014.3
20260507005020 47 192 1.0 5.0 0.00 0.00 0.00 45 1014.0
20260507004522 47 137 2.0 6.0 0.00 0.00 0.00 45 1014.0
20260507004020 48 119 2.0 8.0 0.00 0.00 0.00 44 1014.0
20260507003523 48 263 4.0 8.0 0.00 0.00 0.00 44 1014.0
20260507003018 48 38 2.0 13.0 0.00 0.00 0.00 45 1014.0
20260507002520 48 187 3.0 13.0 0.00 0.00 0.00 44 1014.0
20260507002243 48 140 1.0 7.0 0.00 0.00 0.00 45 1014.0
20260507001520 49 6 2.0 10.0 0.00 0.00 0.00 45 1014.0
20260507001029 49 326 2.0 10.0 0.00 0.00 0.00 43 1014.0
20260507000517 49 321 2.0 9.0 0.00 0.00 0.00 43 1013.7
20260507000015 49 336 4.0 9.0 0.00 0.00 0.00 42 1014.0
20260506235739 49 241 3.0 9.0 0.00 0.00 0.00 45 1013.7
20260506235014 49 35 3.0 7.0 0.00 0.00 0.00 45 1013.7
20260506234514 49 158 2.0 8.0 0.00 0.00 0.00 45 1013.7
20260506234013 50 3 3.0 8.0 0.00 0.00 0.00 44 1013.7
20260506233514 50 253 6.0 7.0 0.00 0.00 0.00 46 1013.7
20260506233233 51 231 4.0 10.0 0.00 0.00 0.00 44 1013.7
20260506232748 51 5 2.0 10.0 0.00 0.00 0.00 43 1013.3
20260506232012 51 234 6.0 9.0 0.00 0.00 0.00 44 1013.7
20260506231513 51 356 4.0 8.0 0.00 0.00 0.00 42 1013.7
20260506231011 51 330 3.0 8.0 0.00 0.00 0.00 43 1013.7
20260506230511 51 301 6.0 9.0 0.00 0.00 0.00 44 1013.7
20260506230009 51 0 3.0 11.0 0.00 0.00 0.00 43 1013.3
20260506225511 51 4 8.0 11.0 0.00 0.00 0.00 43 1013.7
20260506225010 51 130 2.0 11.0 0.00 0.00 0.00 44 1013.3
20260506224953 52 20 2.0 11.0 0.00 0.00 0.00 43 1012.9
20260506224008 51 188 4.0 7.0 0.00 0.00 0.00 43 1013.3
20260506223506 51 145 2.0 10.0 0.00 0.00 0.00 44 1013.3
20260506223223 52 240 9.0 10.0 0.00 0.00 0.00 42 1012.9
20260506222509 52 92 1.0 8.0 0.00 0.00 0.00 44 1013.3
20260506222018 52 269 3.0 8.0 0.00 0.00 0.00 42 1012.9
20260506221505 52 352 4.0 8.0 0.00 0.00 0.00 44 1012.9
20260506221004 52 262 4.0 11.0 0.00 0.00 0.00 46 1012.9
20260506220506 52 157 2.0 11.0 0.00 0.00 0.00 46 1012.9
20260506220005 52 310 2.0 11.0 0.00 0.00 0.00 43 1012.9
20260506215503 52 317 3.0 9.0 0.00 0.00 0.00 43 1012.9
20260506215002 52 230 9.0 12.0 0.00 0.00 0.00 44 1012.5
20260506214501 53 76 1.0 12.0 0.00 0.00 0.00 46 1012.9
20260506214000 53 239 4.0 11.0 0.00 0.00 0.00 43 1012.5
20260506213501 53 352 1.0 9.0 0.00 0.00 0.00 42 1012.5
20260506213224 53 216 2.0 9.0 0.00 0.00 0.00 42 1012.5
20260506212459 53 238 4.0 9.0 0.00 0.00 0.00 42 1012.9
20260506211959 53 232 6.0 9.0 0.00 0.00 0.00 44 1012.9
20260506211458 54 260 5.0 13.0 0.00 0.00 0.00 42 1012.5
20260506211233 54 197 3.0 13.0 0.00 0.00 0.00 42 1012.5
20260506210457 54 233 4.0 13.0 0.00 0.00 0.00 42 1012.5
20260506205957 54 307 2.0 11.0 0.00 0.00 0.00 43 1012.5
20260506205506 54 208 4.0 13.0 0.00 0.00 0.00 44 1012.5
20260506204956 54 257 3.0 13.0 0.00 0.00 0.00 43 1012.5
20260506204457 54 246 4.0 11.0 0.00 0.00 0.00 43 1012.5
20260506204214 53 301 5.0 10.0 0.00 0.00 0.00 43 1012.9
20260506203457 54 334 3.0 12.0 0.00 0.00 0.00 43 1012.5
20260506202955 54 7 4.0 12.0 0.00 0.00 0.00 42 1012.5
20260506202454 55 288 4.0 12.0 0.00 0.00 0.00 39 1012.5
20260506201953 55 278 8.0 12.0 0.00 0.00 0.00 41 1012.5
20260506201452 55 226 4.0 18.0 0.00 0.00 0.00 42 1012.9
20260506200951 55 250 4.0 18.0 0.00 0.00 0.00 42 1012.5
20260506200454 54 232 3.0 11.0 0.00 0.00 0.00 43 1012.5
20260506195951 53 265 4.0 11.0 0.00 0.00 0.00 44 1012.9
20260506195452 53 335 2.0 9.0 0.00 0.00 0.00 45 1012.9
20260506194950 53 302 4.0 12.0 0.00 0.00 0.00 44 1012.9
20260506194449 53 237 6.0 12.0 0.00 0.00 0.00 42 1012.9
20260506193949 53 240 3.0 6.0 0.00 0.00 0.00 48 1012.9
20260506193451 53 198 0.0 14.0 0.00 0.00 0.00 38 1012.9
20260506192948 54 237 5.0 14.0 0.00 0.00 0.00 36 1012.9
20260506192452 55 276 5.0 13.0 0.00 0.00 0.00 40 1012.9
20260506192430 55 203 3.0 15.0 0.00 0.00 0.00 37 1012.9
20260506191449 55 227 4.0 15.0 0.00 0.00 0.00 33 1012.9
20260506190945 55 266 6.0 13.0 0.00 0.00 0.00 41 1012.9
20260506190446 55 237 3.0 11.0 0.00 0.00 0.00 36 1012.9
20260506185945 54 257 8.0 14.0 0.00 0.00 0.00 38 1012.9
20260506185802 54 263 3.0 14.0 0.00 0.00 0.00 36 1012.9
20260506185428 55 237 5.0 11.0 0.00 0.00 0.00 38 1012.9
20260506184441 54 359 2.0 11.0 0.00 0.00 0.00 40 1012.9
20260506183940 55 267 4.0 8.0 0.00 0.00 0.00 42 1012.9
20260506183440 54 202 6.0 13.0 0.00 0.00 0.00 42 1012.9
20260506183402 53 256 9.0 13.0 0.00 0.00 0.00 39 1012.9
20260506182425 53 216 6.0 11.0 0.00 0.00 0.00 43 1013.3
20260506181912 53 172 4.0 10.0 0.00 0.00 0.00 43 1013.3
20260506181411 53 235 4.0 9.0 0.00 0.00 0.00 40 1012.9
20260506180909 53 285 4.0 9.0 0.00 0.00 0.00 40 1012.9
20260506180409 52 289 2.0 8.0 0.00 0.00 0.00 44 1012.9
20260506180130 52 358 2.0 9.0 0.00 0.00 0.00 43 1013.3
20260506175408 52 339 5.0 9.0 0.00 0.00 0.00 42 1012.9
20260506174909 52 302 5.0 10.0 0.00 0.00 0.00 41 1012.9
20260506174409 52 336 3.0 15.0 0.00 0.00 0.00 43 1012.9
20260506173906 52 308 4.0 15.0 0.00 0.00 0.00 43 1012.9
20260506173406 52 238 6.0 14.0 0.00 0.00 0.00 43 1013.3
20260506172907 52 217 2.0 14.0 0.00 0.00 0.00 41 1013.3
20260506172406 53 231 4.0 9.0 0.00 0.00 0.00 41 1013.3
20260506172132 53 229 5.0 13.0 0.00 0.00 0.00 41 1013.3
20260506171404 52 275 8.0 13.0 0.00 0.00 0.00 42 1013.3
20260506170902 52 205 2.0 10.0 0.00 0.00 0.00 43 1013.3
20260506170403 52 260 6.0 9.0 0.00 0.00 0.00 42 1013.3
20260506165901 52 189 5.0 8.0 0.00 0.00 0.00 43 1013.3
20260506165404 52 294 3.0 12.0 0.00 0.00 0.00 42 1013.3
20260506164902 53 228 7.0 12.0 0.00 0.00 0.00 42 1013.7
20260506164402 52 251 3.0 12.0 0.00 0.00 0.00 46 1013.7
20260506164346 52 240 3.0 12.0 0.00 0.00 0.00 42 1013.3
20260506163403 53 240 5.0 9.0 0.00 0.00 0.00 41 1013.3
20260506162912 53 2 3.0 9.0 0.00 0.00 0.00 48 1012.9
20260506162413 52 232 4.0 9.0 0.00 0.00 0.00 45 1013.3
20260506161858 52 224 2.0 9.0 0.00 0.00 0.00 42 1013.7
20260506161358 52 4 4.0 9.0 0.00 0.00 0.00 43 1013.3
20260506160857 52 281 4.0 9.0 0.00 0.00 0.00 40 1013.3
20260506160358 52 223 2.0 9.0 0.00 0.00 0.00 44 1013.3
20260506155855 52 336 2.0 6.0 0.00 0.00 0.00 44 1013.3
20260506155355 52 240 6.0 8.0 0.00 0.00 0.00 43 1013.3
20260506154856 52 78 1.0 10.0 0.00 0.00 0.00 43 1013.3
20260506154355 52 215 2.0 10.0 0.00 0.00 0.00 44 1013.7
20260506153855 52 248 4.0 8.0 0.00 0.00 0.00 49 1013.7
20260506153353 51 189 0.0 8.0 0.00 0.00 0.00 48 1013.3
20260506152852 51 211 3.0 6.0 0.00 0.00 0.00 50 1013.3
20260506152356 50 277 2.0 8.0 0.00 0.00 0.00 44 1013.7
20260506151851 50 225 4.0 8.0 0.00 0.00 0.00 46 1013.3
20260506151351 50 132 4.0 9.0 0.00 0.00 0.00 43 1013.7
20260506151116 51 228 8.0 9.0 0.00 0.00 0.00 46 1013.3
20260506150351 51 5 1.0 8.0 0.00 0.00 0.00 46 1013.3
20260506150115 51 339 2.0 8.0 0.00 0.00 0.00 46 1013.7
20260506145349 51 226 4.0 6.0 0.00 0.00 0.00 46 1013.3
20260506144848 50 233 5.0 6.0 0.00 0.00 0.00 46 1013.7
20260506144350 50 229 3.0 5.0 0.00 0.00 0.00 55 1013.7
20260506143848 49 328 4.0 5.0 0.00 0.00 0.00 51 1013.7
20260506143351 49 205 3.0 6.0 0.00 0.00 0.00 54 1013.7
20260506142847 48 292 2.0 6.0 0.00 0.00 0.00 55 1013.7
20260506142400 48 249 5.0 6.0 0.00 0.00 0.00 53 1013.7
20260506142107 48 212 0.0 6.0 0.00 0.00 0.00 56 1013.7
20260506141345 49 249 3.0 8.0 0.00 0.00 0.00 57 1013.7
20260506140843 49 295 2.0 8.0 0.00 0.00 0.00 54 1013.7
20260506140357 49 284 2.0 7.0 0.00 0.00 0.00 50 1013.7
20260506135842 49 289 3.0 5.0 0.00 0.00 0.00 54 1013.7
20260506135343 49 190 1.0 8.0 0.00 0.00 0.00 53 1013.7
20260506134843 49 226 1.0 8.0 0.00 0.00 0.00 50 1013.3
20260506134608 49 236 3.0 4.0 0.00 0.00 0.00 52 1013.3
20260506133840 49 195 2.0 4.0 0.00 0.00 0.00 50 1012.9
20260506133341 49 239 2.0 4.0 0.00 0.00 0.00 53 1012.9
20260506132839 48 173 1.0 3.0 0.00 0.00 0.00 56 1012.9
20260506132339 48 249 2.0 4.0 0.00 0.00 0.00 56 1013.3
20260506131838 48 177 1.0 4.0 0.00 0.00 0.00 55 1012.5
20260506131340 48 180 2.0 6.0 0.00 0.00 0.00 52 1012.5
20260506130838 48 139 4.0 6.0 0.00 0.00 0.00 54 1012.5
20260506130338 47 138 0.0 6.0 0.00 0.00 0.00 58 1012.5
20260506125836 46 154 4.0 6.0 0.00 0.00 0.00 58 1012.5
20260506125339 46 178 2.0 3.0 0.00 0.00 0.00 61 1012.5
20260506124836 45 248 2.0 2.0 0.00 0.00 0.00 62 1012.9
20260506124337 44 125 2.0 2.0 0.00 0.00 0.00 66 1012.5
20260506123834 43 243 0.0 2.0 0.00 0.00 0.00 71 1012.5
20260506123334 42 315 0.0 2.0 0.00 0.00 0.00 73 1012.5
20260506123100 41 208 0.0 1.0 0.00 0.00 0.00 79 1012.2
20260506122334 41 73 1.0 1.0 0.00 0.00 0.00 79 1012.2
20260506121834 41 55 0.0 0.0 0.00 0.00 0.00 79 1012.2
20260506121333 41 44 0.0 1.0 0.00 0.00 0.00 79 1012.2
20260506120831 40 66 0.0 1.0 0.00 0.00 0.00 79 1011.9